This is the latest recevied weather packets stored in our database for station/object K2BIG. If no packets are shown the sender has not sent any weather packets the latest 10 day(s).
| Time | Temp. | Humidity | Pressure | Rain* | Wind** | Luminosity | Snow |
|---|---|---|---|---|---|---|---|
| 1777847415 | 14.44° C | 37% | 1009.7 hPa | 0 mm | - | - | - |
| 1777847115 | 14.44° C | 39% | 1009.6 hPa | 0 mm | - | - | - |
| 1777846815 | 14.44° C | 36% | 1009.5 hPa | 0 mm | - | - | - |
| 1777846515 | 14.44° C | 36% | 1009.4 hPa | 0 mm | - | - | - |
| 1777846215 | 15° C | 35% | 1009.5 hPa | 0 mm | - | - | - |
| 1777845915 | 14.44° C | 35% | 1009.4 hPa | 0 mm | - | - | - |
| 1777845615 | 14.44° C | 35% | 1009.5 hPa | 0 mm | - | - | - |
| 1777845315 | 14.44° C | 34% | 1009.5 hPa | 0 mm | - | - | - |
| 1777845015 | 15° C | 34% | 1009.5 hPa | 0 mm | - | - | - |
| 1777844715 | 15° C | 33% | 1009.5 hPa | 0 mm | - | - | - |
| 1777844415 | 15° C | 33% | 1009.6 hPa | 0 mm | - | - | - |
| 1777844115 | 15.56° C | 33% | 1009.6 hPa | 0 mm | - | - | - |
| 1777843815 | 15.56° C | 31% | 1009.4 hPa | 0 mm | - | - | - |
| 1777843516 | 16.11° C | 30% | 1009.5 hPa | 0 mm | - | - | - |
| 1777843215 | 16.67° C | 31% | 1009.5 hPa | 0 mm | - | - | - |
| 1777842915 | 16.67° C | 32% | 1009.3 hPa | 0 mm | - | - | - |
| 1777842615 | 16.11° C | 33% | 1009.4 hPa | 0 mm | - | - | - |
| 1777842315 | 16.11° C | 31% | 1009.5 hPa | 0 mm | - | - | - |
| 1777842015 | 16.11° C | 32% | 1009.4 hPa | 0 mm | - | - | - |
| 1777841715 | 16.67° C | 29% | 1009.4 hPa | 0 mm | - | - | - |
| 1777841415 | 16.11° C | 30% | 1009.5 hPa | 0 mm | - | - | - |
| 1777841115 | 16.11° C | 32% | 1009.5 hPa | 0 mm | - | - | - |
| 1777840815 | 16.67° C | 32% | 1009.5 hPa | 0 mm | - | - | - |
| 1777840515 | 16.67° C | 32% | 1009.6 hPa | 0 mm | - | - | - |
| 1777840215 | 16.67° C | 30% | 1009.6 hPa | 0 mm | - | - | - |
* Rain latest hour (hover to see other rain measurements)
** Current wind speed in m/s (hover to see current wind gust speed)